Flag for Austria Weather past 2 weeks in Stockerau, Lower Austria, Austria

Now
88 °F

Scattered clouds.


Feels Like: 90 °F
Forecast: 60 / 94 °F
Wind: 3 mph from North

Location: Tulln Airport

Current Time: Aug 30, 2015 at 12:21:47 PM

Latest Report: Aug 30, 2015 at 11:50 AM


Visibility: 25 mi

Pressure: 30.12 "Hg

Humidity: 49%

Dew point: 66 °F

Location of StockerauLocation

Historic Weather in Stockerau — Graph

°F

Stockerau temperature yesterday

Maximum temperature yesterday: 93 °F (at 2:50 PM)
Minimum temperature yesterday: 63 °F (at 5:50 AM)
Average temperature yesterday: 81 °F

Past Weeks' High & Low Weather Summary

 TemperatureHumidityPressure
High93 °F (Aug 29, 2:50 PM)100% (Aug 17, 6:50 AM)30.24 "Hg (Aug 17, 6:50 AM)
Low48 °F (Aug 26, 6:50 AM)32% (Aug 26, 3:50 PM)29.71 "Hg (Aug 15, 5:50 PM)
Average70 °F67%30.01 "Hg
* Reported Aug 15 10:50 AM — Aug 30 10:50 AM, Stockerau, Weather by CustomWeather, © 2015

Note: Actual official high and low records may vary slightly from our data, if they occured in-between our weather recording intervals... More about our weather records

Advertising

Stockerau weather history for previous 24 hours

 ConditionsComfort  
Time TempWeatherWind HumidityBarometerVisibility
10:50 AM
Sun, Aug 30
84 °FScattered clouds.5 mph51%30.12 "Hg31 mi
9:50 AM81 °FScattered clouds.2 mph62%30.12 "Hg31 mi
8:50 AM77 °FScattered clouds.2 mph65%30.09 "Hg40 mi
7:50 AM73 °FScattered clouds.6 mph74%30.09 "Hg40 mi
6:50 AM70 °FPassing clouds.5 mph78%30.09 "Hg37 mi
5:50 AM68 °FPassing clouds.5 mph83%30.09 "Hg16 mi
10:50 PM
Sat, Aug 29
79 °FPassing clouds.8 mph58%30.15 "Hg25 mi
9:50 PM81 °FPassing clouds.10 mph45%30.15 "Hg25 mi
8:50 PM81 °FPassing clouds.8 mph51%30.15 "Hg25 mi
7:50 PM82 °FPassing clouds.7 mph51%30.15 "Hg25 mi
6:50 PM88 °FPassing clouds.9 mph43%30.12 "Hg25 mi
5:50 PM91 °FSunny.8 mph36%30.15 "Hg25 mi
4:50 PM91 °FSunny.7 mph36%30.15 "Hg25 mi
3:50 PM93 °FSunny.9 mph39%30.18 "Hg25 mi
2:50 PM93 °FSunny.6 mph39%30.18 "Hg25 mi
1:50 PM90 °FSunny.6 mph43%30.21 "Hg25 mi
Weather by CustomWeather, © 2015

See weather overviewHow to use our weather pages